TimeEDT,TemperatureF,Dew PointF,Humidity,Sea Level PressureIn,VisibilityMPH,Wind Direction,Wind SpeedMPH,Gust SpeedMPH,PrecipitationIn,Events,Conditions,WindDirDegrees,DateUTC
6:55 AM,66.2,62.6,88,30.02,10.0,North,9.2,-,N/A,,Overcast,10,2013-09-08 10:55:00
7:55 AM,66.7,63.5,89,30.04,7.0,North,8.1,-,N/A,,Overcast,10,2013-09-08 11:55:00
8:09 AM,66.2,64.4,94,30.03,5.0,North,8.1,-,N/A,,Mostly Cloudy,10,2013-09-08 12:09:00
8:55 AM,66.7,62.6,86,30.06,7.0,North,10.4,-,N/A,,Mostly Cloudy,10,2013-09-08 12:55:00
9:10 AM,66.2,62.6,88,30.04,7.0,North,12.7,-,N/A,,Mostly Cloudy,10,2013-09-08 13:10:00
9:34 AM,68.0,59.0,73,30.05,10.0,NNE,16.1,-,N/A,,Scattered Clouds,20,2013-09-08 13:34:00
9:55 AM,67.5,57.0,69,30.07,10.0,North,13.8,-,N/A,,Partly Cloudy,10,2013-09-08 13:55:00
10:55 AM,69.4,53.8,57,30.09,12.0,NNE,15.0,21.9,N/A,,Partly Cloudy,30,2013-09-08 14:55:00
11:55 AM,70.7,53.2,54,30.11,12.0,NE,15.0,-,N/A,,Partly Cloudy,40,2013-09-08 15:55:00
12:55 PM,70.7,49.8,48,30.12,12.0,NNE,15.0,-,N/A,,Scattered Clouds,30,2013-09-08 16:55:00
1:55 PM,72.0,50.5,47,30.11,12.0,NE,13.8,20.7,N/A,,Partly Cloudy,50,2013-09-08 17:55:00
2:55 PM,72.3,50.5,46,30.11,12.0,NE,12.7,-,N/A,,Mostly Cloudy,40,2013-09-08 18:55:00
3:55 PM,70.5,49.8,48,30.09,12.0,ENE,11.5,-,N/A,,Mostly Cloudy,60,2013-09-08 19:55:00
4:55 PM,69.4,48.7,48,30.09,12.0,NE,10.4,-,N/A,,Mostly Cloudy,40,2013-09-08 20:55:00
5:55 PM,66.4,48.6,53,30.10,12.0,NNE,13.8,-,N/A,,Mostly Cloudy,20,2013-09-08 21:55:00
6:55 PM,65.1,49.5,57,30.09,12.0,NNE,10.4,-,N/A,,Mostly Cloudy,20,2013-09-08 22:55:00
7:55 PM,60.8,50.5,69,30.09,12.0,North,6.9,-,N/A,,Mostly Cloudy,360,2013-09-08 23:55:00
8:58 PM,60.1,50.5,71,30.07,10.0,North,2.3,-,N/A,,Clear,360,2013-09-09 00:58:00
9:58 PM,57.4,50.9,79,30.08,10.0,North,3.5,-,N/A,,Clear,10,2013-09-09 01:58:00
10:58 PM,54.5,50.7,87,30.08,10.0,North,6.9,-,N/A,,Clear,360,2013-09-09 02:58:00
11:33 PM,55.4,50.0,82,30.07,9.0,North,4.6,-,N/A,,Partly Cloudy,360,2013-09-09 03:33:00
11:43 PM,55.4,50.0,82,30.07,10.0,North,5.8,-,N/A,,Partly Cloudy,350,2013-09-09 03:43:00
11:58 PM,55.0,50.4,84,30.08,10.0,North,5.8,-,N/A,,Clear,350,2013-09-09 03:58:00